Time,TemperatureF,DewpointF,PressureIn,WindDirection,WindDirectionDegrees,WindSpeedMPH,WindSpeedGustMPH,Humidity,HourlyPrecipIn,Conditions,Clouds,dailyrainin,SoftwareType,DateUTC
2013-07-30 00:38:00,56.6,51.2,29.97,West,270,0.0,0.0,82,0.00,,,0.00,WUHU21623XXSP,2013-07-30 04:38:00,
2013-07-30 01:38:00,55.5,50.8,29.97,West,270,0.0,0.0,84,0.00,,,0.00,WUHU21623XXSP,2013-07-30 05:38:00,
2013-07-30 02:38:00,54.1,49.7,29.97,West,270,0.0,0.0,85,0.00,,,0.00,WUHU21623XXSP,2013-07-30 06:38:00,
2013-07-30 03:38:00,52.8,48.7,29.98,West,270,0.0,0.0,86,0.00,,,0.00,WUHU21623XXSP,2013-07-30 07:38:00,
2013-07-30 04:38:00,51.9,48.1,29.98,West,270,0.0,0.0,87,0.00,,,0.00,WUHU21623XXSP,2013-07-30 08:38:00,
2013-07-30 05:38:00,51.2,47.4,30.00,West,270,0.0,0.0,87,0.00,,,0.00,WUHU21623XXSP,2013-07-30 09:38:00,
2013-07-30 06:38:00,50.5,47.1,30.00,West,270,0.0,0.0,88,0.00,,,0.00,WUHU21623XXSP,2013-07-30 10:38:00,
2013-07-30 07:38:00,52.8,49.6,30.02,West,270,0.0,0.0,89,0.00,,,0.00,WUHU21623XXSP,2013-07-30 11:38:00,
2013-07-30 08:38:00,63.4,55.1,30.03,NE,45,0.0,0.0,74,0.00,,,0.00,WUHU21623XXSP,2013-07-30 12:38:00,
2013-07-30 09:38:00,64.5,55.8,30.01,NNE,23,0.0,0.0,73,0.00,,,0.00,WUHU21623XXSP,2013-07-30 13:38:00,
2013-07-30 10:38:00,67.2,56.5,30.01,SSW,203,5.4,5.4,68,0.00,,,0.00,WUHU21623XXSP,2013-07-30 14:38:00,
2013-07-30 11:32:00,70.5,57.5,30.01,NNW,337,0.0,0.0,63,0.00,,,0.00,WUHU21623XXSP,2013-07-30 15:32:00,
2013-07-30 11:37:00,70.3,58.2,30.01,South,180,0.0,0.0,65,0.00,,,0.00,WUHU21623XXSP,2013-07-30 15:37:00,
2013-07-30 11:42:00,70.8,58.6,30.01,SW,225,2.9,2.9,65,0.00,,,0.00,WUHU21623XXSP,2013-07-30 15:42:00,
2013-07-30 11:47:00,71.2,59.0,30.01,SSW,202,0.0,2.9,65,0.00,,,0.00,WUHU21623XXSP,2013-07-30 15:47:00,
2013-07-30 11:53:00,71.5,58.9,30.01,SSW,202,0.0,0.0,64,0.00,,,0.00,WUHU21623XXSP,2013-07-30 15:53:00,
2013-07-30 11:58:00,72.6,59.0,30.01,WSW,247,0.0,0.0,62,0.00,,,0.00,WUHU21623XXSP,2013-07-30 15:58:00,
2013-07-30 12:06:00,72.4,57.9,30.01,NNW,337,0.0,0.0,60,0.00,,,0.00,WUHU21623XXSP,2013-07-30 16:06:00,
2013-07-30 12:11:00,72.1,58.1,30.01,SSW,202,6.9,6.9,61,0.00,,,0.00,WUHU21623XXSP,2013-07-30 16:11:00,
2013-07-30 12:16:00,72.3,58.7,30.00,South,180,0.0,6.9,62,0.00,,,0.00,WUHU21623XXSP,2013-07-30 16:16:00,
2013-07-30 12:25:00,72.4,58.4,30.00,SSW,202,0.0,0.0,61,0.00,,,0.00,WUHU21623XXSP,2013-07-30 16:25:00,
2013-07-30 12:34:00,72.4,57.9,30.00,WNW,292,0.0,0.0,60,0.00,,,0.00,WUHU21623XXSP,2013-07-30 16:34:00,
2013-07-30 12:40:00,72.4,57.4,30.00,NNE,22,0.0,0.0,59,0.00,,,0.00,WUHU21623XXSP,2013-07-30 16:40:00,
2013-07-30 12:45:00,72.4,58.4,30.00,SW,225,3.4,3.4,61,0.00,,,0.00,WUHU21623XXSP,2013-07-30 16:45:00,
2013-07-30 12:51:00,72.4,58.4,29.99,ESE,112,0.0,3.4,61,0.00,,,0.00,WUHU21623XXSP,2013-07-30 16:51:00,
2013-07-30 12:56:00,72.4,58.4,29.99,West,270,0.0,0.0,61,0.00,,,0.00,WUHU21623XXSP,2013-07-30 16:56:00,
2013-07-30 13:01:00,72.8,58.8,29.99,West,270,0.0,0.0,61,0.00,,,0.00,WUHU21623XXSP,2013-07-30 17:01:00,
2013-07-30 13:08:00,73.0,58.5,29.99,SW,225,7.6,7.6,60,0.00,,,0.00,WUHU21623XXSP,2013-07-30 17:08:00,
2013-07-30 13:13:00,73.0,58.5,29.99,SE,135,0.0,7.6,60,0.00,,,0.00,WUHU21623XXSP,2013-07-30 17:13:00,
2013-07-30 13:19:00,73.0,58.0,29.99,West,270,0.0,0.0,59,0.00,,,0.00,WUHU21623XXSP,2013-07-30 17:19:00,
2013-07-30 13:24:00,72.8,57.3,29.99,NW,315,0.0,0.0,58,0.00,,,0.00,WUHU21623XXSP,2013-07-30 17:24:00,
2013-07-30 13:29:00,72.6,57.6,29.99,West,270,0.0,0.0,59,0.00,,,0.00,WUHU21623XXSP,2013-07-30 17:29:00,
2013-07-30 13:38:00,73.3,58.8,29.99,NNW,337,5.8,5.8,60,0.00,,,0.00,WUHU21623XXSP,2013-07-30 17:38:00,
2013-07-30 13:43:00,73.5,58.0,29.99,NW,315,5.8,5.8,58,0.00,,,0.00,WUHU21623XXSP,2013-07-30 17:43:00,
2013-07-30 13:48:00,73.0,57.5,29.99,SSW,202,3.6,5.8,58,0.00,,,0.00,WUHU21623XXSP,2013-07-30 17:48:00,
2013-07-30 13:55:00,73.0,58.0,29.98,WSW,247,4.9,4.9,59,0.00,,,0.00,WUHU21623XXSP,2013-07-30 17:55:00,
2013-07-30 14:00:00,73.0,58.0,29.98,West,270,0.0,4.9,59,0.00,,,0.00,WUHU21623XXSP,2013-07-30 18:00:00,
2013-07-30 14:06:00,73.3,58.8,29.98,SW,225,5.4,5.4,60,0.00,,,0.00,WUHU21623XXSP,2013-07-30 18:06:00,
2013-07-30 14:11:00,73.3,57.8,29.98,SSW,202,0.0,5.4,58,0.00,,,0.00,WUHU21623XXSP,2013-07-30 18:11:00,
2013-07-30 14:16:00,73.0,58.0,29.98,West,270,0.0,0.0,59,0.00,,,0.00,WUHU21623XXSP,2013-07-30 18:16:00,
2013-07-30 14:20:00,72.6,57.6,29.97,South,180,0.0,0.0,59,0.00,,,0.00,WUHU21623XXSP,2013-07-30 18:20:00,
2013-07-30 14:26:00,72.6,58.1,29.97,SSW,202,6.0,6.0,60,0.00,,,0.00,WUHU21623XXSP,2013-07-30 18:26:00,
2013-07-30 14:31:00,73.0,58.0,29.97,SSW,202,5.4,6.0,59,0.00,,,0.00,WUHU21623XXSP,2013-07-30 18:31:00,
2013-07-30 14:36:00,73.9,58.4,29.97,SE,135,5.1,5.4,58,0.00,,,0.00,WUHU21623XXSP,2013-07-30 18:36:00,
2013-07-30 14:41:00,74.4,58.4,29.97,WNW,292,0.0,5.1,57,0.00,,,0.00,WUHU21623XXSP,2013-07-30 18:41:00,
2013-07-30 14:46:00,74.8,57.7,29.98,SSW,202,6.3,6.3,55,0.00,,,0.00,WUHU21623XXSP,2013-07-30 18:46:00,
2013-07-30 14:57:00,75.3,58.2,29.97,South,180,0.0,0.0,55,0.00,,,0.00,WUHU21623XXSP,2013-07-30 18:57:00,
2013-07-30 15:02:00,75.7,58.6,29.97,NW,315,0.0,0.0,55,0.00,,,0.00,WUHU21623XXSP,2013-07-30 19:02:00,
2013-07-30 15:12:00,75.9,58.2,29.96,SSE,157,0.0,0.0,54,0.00,,,0.00,WUHU21623XXSP,2013-07-30 19:12:00,
2013-07-30 15:18:00,75.9,58.2,29.96,SSW,202,0.0,0.0,54,0.00,,,0.00,WUHU21623XXSP,2013-07-30 19:18:00,
2013-07-30 15:23:00,75.7,57.5,29.96,NNE,22,0.0,0.0,53,0.00,,,0.00,WUHU21623XXSP,2013-07-30 19:23:00,
2013-07-30 15:28:00,75.3,56.6,29.96,North,0,0.0,0.0,52,0.00,,,0.00,WUHU21623XXSP,2013-07-30 19:28:00,
2013-07-30 15:33:00,75.3,56.6,29.96,East,90,0.0,0.0,52,0.00,,,0.00,WUHU21623XXSP,2013-07-30 19:33:00,
2013-07-30 15:38:00,75.3,57.1,29.96,East,90,0.0,0.0,53,0.00,,,0.00,WUHU21623XXSP,2013-07-30 19:38:00,
2013-07-30 15:43:00,75.3,57.1,29.96,East,90,0.0,0.0,53,0.00,,,0.00,WUHU21623XXSP,2013-07-30 19:43:00,
2013-07-30 15:48:00,75.9,57.7,29.96,WNW,292,0.0,0.0,53,0.00,,,0.00,WUHU21623XXSP,2013-07-30 19:48:00,
2013-07-30 15:53:00,76.6,59.4,29.96,SSW,202,0.0,4.3,55,0.00,,,0.00,WUHU21623XXSP,2013-07-30 19:53:00,
2013-07-30 15:58:00,76.8,59.1,29.96,SSW,202,0.0,4.3,54,0.00,,,0.00,WUHU21623XXSP,2013-07-30 19:58:00,
2013-07-30 16:03:00,77.3,59.5,29.95,SSE,157,0.0,0.0,54,0.00,,,0.00,WUHU21623XXSP,2013-07-30 20:03:00,
2013-07-30 16:10:00,77.5,59.2,29.95,NE,45,4.7,4.7,53,0.00,,,0.00,WUHU21623XXSP,2013-07-30 20:10:00,
2013-07-30 16:18:00,77.1,57.7,29.94,ENE,67,0.0,4.7,51,0.00,,,0.00,WUHU21623XXSP,2013-07-30 20:18:00,
2013-07-30 16:23:00,77.1,57.7,29.94,SE,135,0.0,0.0,51,0.00,,,0.00,WUHU21623XXSP,2013-07-30 20:23:00,
2013-07-30 16:28:00,77.1,58.2,29.94,SSW,202,0.0,0.0,52,0.00,,,0.00,WUHU21623XXSP,2013-07-30 20:28:00,
2013-07-30 16:33:00,77.5,58.1,29.94,South,180,2.9,4.3,51,0.00,,,0.00,WUHU21623XXSP,2013-07-30 20:33:00,
2013-07-30 16:42:00,78.0,58.0,29.94,NW,315,0.0,2.9,50,0.00,,,0.00,WUHU21623XXSP,2013-07-30 20:42:00,
2013-07-30 16:47:00,78.0,58.0,29.94,South,180,0.0,0.0,50,0.00,,,0.00,WUHU21623XXSP,2013-07-30 20:47:00,
2013-07-30 16:52:00,78.2,58.1,29.93,SSW,202,7.6,7.6,50,0.00,,,0.00,WUHU21623XXSP,2013-07-30 20:52:00,
2013-07-30 16:57:00,78.4,58.9,29.93,SW,225,0.0,7.6,51,0.00,,,0.00,WUHU21623XXSP,2013-07-30 20:57:00,
2013-07-30 17:02:00,78.6,59.6,29.93,SSW,202,0.0,0.0,52,0.00,,,0.00,WUHU21623XXSP,2013-07-30 21:02:00,
2013-07-30 17:10:00,78.4,58.3,29.94,ENE,67,0.0,0.0,50,0.00,,,0.00,WUHU21623XXSP,2013-07-30 21:10:00,
2013-07-30 17:16:00,78.2,58.1,29.93,ENE,67,0.0,0.0,50,0.00,,,0.00,WUHU21623XXSP,2013-07-30 21:16:00,
2013-07-30 17:21:00,78.0,58.5,29.93,SSW,202,0.0,0.0,51,0.00,,,0.00,WUHU21623XXSP,2013-07-30 21:21:00,
2013-07-30 17:31:00,77.7,58.2,29.93,ENE,67,0.0,0.0,51,0.00,,,0.00,WUHU21623XXSP,2013-07-30 21:31:00,
2013-07-30 17:36:00,77.5,58.1,29.93,NE,45,0.0,0.0,51,0.00,,,0.00,WUHU21623XXSP,2013-07-30 21:36:00,
2013-07-30 17:41:00,77.3,57.3,29.93,NW,315,0.0,0.0,50,0.00,,,0.00,WUHU21623XXSP,2013-07-30 21:41:00,
2013-07-30 17:47:00,77.1,57.7,29.93,WSW,247,0.0,0.0,51,0.00,,,0.00,WUHU21623XXSP,2013-07-30 21:47:00,
2013-07-30 17:52:00,77.1,57.7,29.92,ESE,112,0.0,0.0,51,0.00,,,0.00,WUHU21623XXSP,2013-07-30 21:52:00,
2013-07-30 17:57:00,77.1,57.1,29.92,ENE,67,0.0,0.0,50,0.00,,,0.00,WUHU21623XXSP,2013-07-30 21:57:00,
2013-07-30 18:02:00,76.8,56.8,29.92,ENE,67,0.0,0.0,50,0.00,,,0.00,WUHU21623XXSP,2013-07-30 22:02:00,
2013-07-30 18:07:00,76.4,57.6,29.92,WSW,247,0.0,0.0,52,0.00,,,0.00,WUHU21623XXSP,2013-07-30 22:07:00,
2013-07-30 18:18:00,76.2,57.4,29.92,South,180,0.0,0.0,52,0.00,,,0.00,WUHU21623XXSP,2013-07-30 22:18:00,
2013-07-30 18:23:00,75.9,57.7,29.92,SSW,202,0.0,0.0,53,0.00,,,0.00,WUHU21623XXSP,2013-07-30 22:23:00,
2013-07-30 18:29:00,75.3,57.1,29.92,SSE,157,0.0,0.0,53,0.00,,,0.00,WUHU21623XXSP,2013-07-30 22:29:00,
2013-07-30 18:34:00,75.0,56.8,29.92,South,180,0.0,0.0,53,0.00,,,0.00,WUHU21623XXSP,2013-07-30 22:34:00,
2013-07-30 18:39:00,74.8,56.7,29.92,SSW,202,0.0,0.0,53,0.00,,,0.00,WUHU21623XXSP,2013-07-30 22:39:00,
2013-07-30 18:44:00,74.6,57.0,29.92,SSW,202,0.0,0.0,54,0.00,,,0.00,WUHU21623XXSP,2013-07-30 22:44:00,
2013-07-30 18:49:00,74.6,57.0,29.91,SSW,202,0.0,0.0,54,0.00,,,0.00,WUHU21623XXSP,2013-07-30 22:49:00,
2013-07-30 18:59:00,74.8,56.7,29.91,SSW,202,0.0,0.0,53,0.00,,,0.00,WUHU21623XXSP,2013-07-30 22:59:00,
2013-07-30 19:04:00,74.8,56.7,29.91,SSW,202,5.6,5.6,53,0.00,,,0.00,WUHU21623XXSP,2013-07-30 23:04:00,
2013-07-30 19:09:00,74.8,57.2,29.91,West,270,0.0,5.6,54,0.00,,,0.00,WUHU21623XXSP,2013-07-30 23:09:00,
2013-07-30 19:16:00,74.4,56.8,29.91,North,0,0.0,0.0,54,0.00,,,0.00,WUHU21623XXSP,2013-07-30 23:16:00,
2013-07-30 19:21:00,74.1,56.5,29.91,SSW,202,0.0,0.0,54,0.00,,,0.00,WUHU21623XXSP,2013-07-30 23:21:00,
2013-07-30 19:26:00,73.9,56.3,29.91,SSW,202,0.0,0.0,54,0.00,,,0.00,WUHU21623XXSP,2013-07-30 23:26:00,
2013-07-30 19:31:00,73.3,56.3,29.92,SSW,202,0.0,0.0,55,0.00,,,0.00,WUHU21623XXSP,2013-07-30 23:31:00,
2013-07-30 19:36:00,73.0,55.5,29.91,SSW,202,0.0,0.0,54,0.00,,,0.00,WUHU21623XXSP,2013-07-30 23:36:00,
2013-07-30 19:41:00,72.6,55.1,29.91,SSW,202,0.0,0.0,54,0.00,,,0.00,WUHU21623XXSP,2013-07-30 23:41:00,
2013-07-30 19:46:00,72.4,55.5,29.91,SW,225,0.0,0.0,55,0.00,,,0.00,WUHU21623XXSP,2013-07-30 23:46:00,
2013-07-30 19:51:00,72.1,55.2,29.91,SW,225,0.0,0.0,55,0.00,,,0.00,WUHU21623XXSP,2013-07-30 23:51:00,
2013-07-30 19:56:00,72.1,55.2,29.91,SE,135,0.0,0.0,55,0.00,,,0.00,WUHU21623XXSP,2013-07-30 23:56:00,
2013-07-30 20:03:00,71.7,55.8,29.91,South,180,0.0,0.0,57,0.00,,,0.00,WUHU21623XXSP,2013-07-31 00:03:00,
2013-07-30 20:09:00,71.2,55.8,29.91,South,180,0.0,0.0,58,0.00,,,0.00,WUHU21623XXSP,2013-07-31 00:09:00,
2013-07-30 20:16:00,70.8,55.5,29.91,SE,135,0.0,0.0,58,0.00,,,0.00,WUHU21623XXSP,2013-07-31 00:16:00,
2013-07-30 20:21:00,70.8,55.5,29.91,South,180,0.0,0.0,58,0.00,,,0.00,WUHU21623XXSP,2013-07-31 00:21:00,
2013-07-30 20:26:00,70.5,55.7,29.91,South,180,0.0,0.0,59,0.00,,,0.00,WUHU21623XXSP,2013-07-31 00:26:00,
2013-07-30 20:31:00,70.3,55.9,29.91,South,180,0.0,0.0,60,0.00,,,0.00,WUHU21623XXSP,2013-07-31 00:31:00,
2013-07-30 20:37:00,69.7,55.8,29.91,South,180,0.0,0.0,61,0.00,,,0.00,WUHU21623XXSP,2013-07-31 00:37:00,
2013-07-30 20:42:00,69.7,55.8,29.91,South,180,0.0,0.0,61,0.00,,,0.00,WUHU21623XXSP,2013-07-31 00:42:00,
2013-07-30 20:47:00,69.4,55.5,29.91,South,180,0.0,0.0,61,0.00,,,0.00,WUHU21623XXSP,2013-07-31 00:47:00,
2013-07-30 20:54:00,68.8,55.4,29.91,South,180,0.0,0.0,62,0.00,,,0.00,WUHU21623XXSP,2013-07-31 00:54:00,
2013-07-30 20:59:00,68.5,55.6,29.91,South,180,0.0,0.0,63,0.00,,,0.00,WUHU21623XXSP,2013-07-31 00:59:00,
2013-07-30 21:07:00,67.9,55.5,29.91,South,180,0.0,0.0,64,0.00,,,0.00,WUHU21623XXSP,2013-07-31 01:07:00,
2013-07-30 21:12:00,67.6,55.6,29.91,South,180,0.0,0.0,65,0.00,,,0.00,WUHU21623XXSP,2013-07-31 01:12:00,
2013-07-30 21:18:00,67.2,55.2,29.90,South,180,0.0,0.0,65,0.00,,,0.00,WUHU21623XXSP,2013-07-31 01:18:00,
2013-07-30 21:23:00,67.0,55.0,29.91,South,180,0.0,0.0,65,0.00,,,0.00,WUHU21623XXSP,2013-07-31 01:23:00,
2013-07-30 21:28:00,66.9,55.3,29.91,South,180,0.0,0.0,66,0.00,,,0.00,WUHU21623XXSP,2013-07-31 01:28:00,
2013-07-30 21:33:00,66.5,55.4,29.91,South,180,0.0,0.0,67,0.00,,,0.00,WUHU21623XXSP,2013-07-31 01:33:00,
2013-07-30 21:38:00,66.3,55.2,29.91,South,180,0.0,0.0,67,0.00,,,0.00,WUHU21623XXSP,2013-07-31 01:38:00,
2013-07-30 21:43:00,66.1,55.4,29.91,South,180,0.0,0.0,68,0.00,,,0.00,WUHU21623XXSP,2013-07-31 01:43:00,
2013-07-30 21:48:00,66.1,55.4,29.92,South,180,0.0,0.0,68,0.00,,,0.00,WUHU21623XXSP,2013-07-31 01:48:00,
2013-07-30 21:53:00,65.8,55.1,29.91,South,180,0.0,0.0,68,0.00,,,0.00,WUHU21623XXSP,2013-07-31 01:53:00,
2013-07-30 21:58:00,65.4,55.1,29.92,South,180,0.0,0.0,69,0.00,,,0.00,WUHU21623XXSP,2013-07-31 01:58:00,
2013-07-30 22:03:00,65.2,55.3,29.92,South,180,0.0,0.0,70,0.00,,,0.00,WUHU21623XXSP,2013-07-31 02:03:00,
2013-07-30 22:08:00,65.2,55.3,29.92,South,180,0.0,0.0,70,0.00,,,0.00,WUHU21623XXSP,2013-07-31 02:08:00,
2013-07-30 22:13:00,64.9,55.4,29.92,South,180,0.0,0.0,71,0.00,,,0.00,WUHU21623XXSP,2013-07-31 02:13:00,
2013-07-30 22:18:00,64.9,55.4,29.92,South,180,0.0,0.0,71,0.00,,,0.00,WUHU21623XXSP,2013-07-31 02:18:00,
2013-07-30 22:23:00,64.9,55.4,29.92,South,180,0.0,0.0,71,0.00,,,0.00,WUHU21623XXSP,2013-07-31 02:23:00,
2013-07-30 22:28:00,64.5,55.8,29.92,South,180,0.0,0.0,73,0.00,,,0.00,WUHU21623XXSP,2013-07-31 02:28:00,
2013-07-30 22:33:00,64.5,55.8,29.92,South,180,0.0,0.0,73,0.00,,,0.00,WUHU21623XXSP,2013-07-31 02:33:00,
2013-07-30 22:38:00,64.5,56.2,29.92,South,180,0.0,0.0,74,0.00,,,0.00,WUHU21623XXSP,2013-07-31 02:38:00,
2013-07-30 22:43:00,64.3,56.0,29.92,South,180,0.0,0.0,74,0.00,,,0.00,WUHU21623XXSP,2013-07-31 02:43:00,
2013-07-30 22:48:00,64.3,56.0,29.92,South,180,0.0,0.0,74,0.00,,,0.00,WUHU21623XXSP,2013-07-31 02:48:00,
2013-07-30 22:54:00,64.0,56.4,29.92,SSE,157,0.0,0.0,76,0.00,,,0.00,WUHU21623XXSP,2013-07-31 02:54:00,
2013-07-30 22:59:00,64.0,56.4,29.92,SE,135,0.0,0.0,76,0.00,,,0.00,WUHU21623XXSP,2013-07-31 02:59:00,
2013-07-30 23:04:00,64.0,56.4,29.92,NE,45,0.0,0.0,76,0.00,,,0.00,WUHU21623XXSP,2013-07-31 03:04:00,
2013-07-30 23:09:00,63.8,56.5,29.92,SE,135,0.0,0.0,77,0.00,,,0.00,WUHU21623XXSP,2013-07-31 03:09:00,
2013-07-30 23:14:00,63.8,56.5,29.92,SE,135,0.0,0.0,77,0.00,,,0.00,WUHU21623XXSP,2013-07-31 03:14:00,
2013-07-30 23:19:00,63.8,56.5,29.92,ESE,112,0.0,0.0,77,0.00,,,0.00,WUHU21623XXSP,2013-07-31 03:19:00,
2013-07-30 23:24:00,63.6,56.4,29.92,ESE,112,0.0,0.0,77,0.00,,,0.00,WUHU21623XXSP,2013-07-31 03:24:00,
2013-07-30 23:29:00,63.6,56.7,29.92,ESE,112,0.0,0.0,78,0.00,,,0.00,WUHU21623XXSP,2013-07-31 03:29:00,
2013-07-30 23:38:00,63.6,57.0,29.92,East,90,0.0,0.0,79,0.00,,,0.00,WUHU21623XXSP,2013-07-31 03:38:00,